STARLINK-2435 (47843 NORAD) Tracking and Keplerian Element Data

This shows tracking and keplerian element data for the satellite.

Feedback or suggestion? Click here.




ElementValue
Catalog47843
NameSTARLINK-2435
Epoch Orbit1717
Epoch Day173.85877037
Epoch Year2021
RAAN61.717
Inclination53.0565
Eccentricity0.0002062
Argument of Perigee92.3924
Mean Anonmoly267.7301
Mean Motion15.06393452
Decay Rate6.72E-06
L11 47843U 21018BJ 21173.85877037 .00000672 00000-0 64031-4 0 9990
L22 47843 53.0565 61.7170 0002062 92.3924 267.7301 15.06393452 17173

Live tracking and technical data element details for STARLINK-2435 (NORAD 47843). STARLINK-2435 can be tracked NOW for your location showing map with azimuth and elevation plus other details from your city location.

Track the satellite on the map from your city or location and see movement details for azimuth, elevation, latitude, longitude, range, height, and movement on the map or in text.







IsCatalogInMostPopularTable: catalog: 47843, numindb: 46
Update: records affected: 1



GetName: 47843 STARLINK-2435

Hit Count: updated at: Thu, 24 Jun 2021 03:01:46 GMT